| time (UTC) | temp F | wind direction | speed MPH | gust MPH | rain 1hr in | rain 24hr in | rain mn in | humidity % | barometer mb |
| 20260906224632 | 94 | 118 | 8.0 | 14.0 | 0.00 | 0.00 | 0.00 | 23 | 1014.6 |
| 20260906223146 | 95 | 106 | 8.0 | 16.0 | 0.00 | 0.00 | 0.00 | 22 | 1014.8 |
| 20260906221640 | 95 | 161 | 9.0 | 19.0 | 0.00 | 0.00 | 0.00 | 23 | 1014.9 |
| 20260906220132 | 95 | 124 | 5.0 | 16.0 | 0.00 | 0.00 | 0.00 | 24 | 1014.9 |
| 20260906214622 | 95 | 87 | 4.0 | 16.0 | 0.00 | 0.00 | 0.00 | 21 | 1015.1 |
| 20260906213138 | 94 | 114 | 6.0 | 15.0 | 0.00 | 0.00 | 0.00 | 23 | 1015.2 |
| 20260906211630 | 96 | 123 | 7.0 | 11.0 | 0.00 | 0.00 | 0.00 | 23 | 1015.4 |
| 20260906210126 | 95 | 132 | 5.0 | 9.0 | 0.00 | 0.00 | 0.00 | 22 | 1015.5 |
| 20260906204637 | 94 | 102 | 6.0 | 13.0 | 0.00 | 0.00 | 0.00 | 24 | 1015.9 |
| 20260906203155 | 93 | 126 | 7.0 | 14.0 | 0.00 | 0.00 | 0.00 | 26 | 1016.1 |
| 20260906201627 | 91 | 156 | 8.0 | 14.0 | 0.00 | 0.00 | 0.00 | 27 | 1016.1 |
| 20260906200140 | 91 | 97 | 8.0 | 15.0 | 0.00 | 0.00 | 0.00 | 28 | 1016.1 |
| 20260906194657 | 90 | 113 | 11.0 | 21.0 | 0.00 | 0.00 | 0.00 | 27 | 1016.3 |
| 20260906193127 | 93 | 120 | 1.0 | 10.0 | 0.00 | 0.00 | 0.00 | 28 | 1016.4 |
| 20260906191622 | 93 | 341 | 4.0 | 12.0 | 0.00 | 0.00 | 0.00 | 29 | 1016.8 |
| 20260906190136 | 92 | 62 | 3.0 | 8.0 | 0.00 | 0.00 | 0.00 | 30 | 1016.8 |
| 20260906184631 | 92 | 64 | 4.0 | 8.0 | 0.00 | 0.00 | 0.00 | 30 | 1017.1 |
| 20260906183123 | 93 | 285 | 3.0 | 9.0 | 0.00 | 0.00 | 0.00 | 29 | 1017.4 |
| 20260906181656 | 92 | 132 | 4.0 | 7.0 | 0.00 | 0.00 | 0.00 | 29 | 1018.0 |
| 20260906180132 | 91 | 332 | 2.0 | 9.0 | 0.00 | 0.00 | 0.00 | 30 | 1018.2 |
| 20260906174625 | 90 | 226 | 3.0 | 7.0 | 0.00 | 0.00 | 0.00 | 31 | 1018.4 |
| 20260906173122 | 90 | 265 | 2.0 | 5.0 | 0.00 | 0.00 | 0.00 | 33 | 1018.5 |
| 20260906171654 | 89 | 26 | 2.0 | 5.0 | 0.00 | 0.00 | 0.00 | 32 | 1018.6 |
| 20260906170126 | 89 | 151 | 1.0 | 7.0 | 0.00 | 0.00 | 0.00 | 32 | 1018.7 |
| 20260906164642 | 88 | 170 | 4.0 | 7.0 | 0.00 | 0.00 | 0.00 | 34 | 1018.7 |
| 20260906163133 | 89 | 216 | 3.0 | 8.0 | 0.00 | 0.00 | 0.00 | 33 | 1018.7 |
| 20260906161628 | 88 | 262 | 3.0 | 5.0 | 0.00 | 0.00 | 0.00 | 34 | 1018.7 |
| 20260906160140 | 87 | 218 | 1.0 | 4.0 | 0.00 | 0.00 | 0.00 | 34 | 1018.6 |
| 20260906154654 | 87 | 275 | 1.0 | 4.0 | 0.00 | 0.00 | 0.00 | 35 | 1018.7 |
| 20260906153128 | 85 | 309 | 2.0 | 4.0 | 0.00 | 0.00 | 0.00 | 36 | 1018.6 |
| 20260906151621 | 84 | 322 | 1.0 | 4.0 | 0.00 | 0.00 | 0.00 | 38 | 1018.8 |
| 20260906150137 | 83 | 279 | 1.0 | 4.0 | 0.00 | 0.00 | 0.00 | 41 | 1018.8 |
| 20260906144627 | 82 | 240 | 1.0 | 3.0 | 0.00 | 0.00 | 0.00 | 42 | 1018.7 |
| 20260906141623 | 78 | 302 | 2.0 | 4.0 | 0.00 | 0.00 | 0.00 | 46 | 1018.5 |
| 20260906140136 | 77 | 280 | 0.0 | 2.0 | 0.00 | 0.00 | 0.00 | 49 | 1018.5 |
| 20260906134632 | 76 | 94 | 0.0 | 0.0 | 0.00 | 0.00 | 0.00 | 50 | 1018.3 |
| 20260906133124 | 73 | 94 | 0.0 | 1.0 | 0.00 | 0.00 | 0.00 | 55 | 1018.2 |
| 20260906131640 | 70 | 94 | 0.0 | 0.0 | 0.00 | 0.00 | 0.00 | 56 | 1017.9 |
| 20260906130132 | 68 | 291 | 0.0 | 0.0 | 0.00 | 0.00 | 0.00 | 56 | 1018.1 |
| 20260906124624 | 68 | 291 | 0.0 | 0.0 | 0.00 | 0.00 | 0.00 | 57 | 1017.9 |
| 20260906123140 | 68 | 291 | 0.0 | 0.0 | 0.00 | 0.00 | 0.00 | 55 | 1017.8 |
| 20260906121653 | 68 | 291 | 0.0 | 1.0 | 0.00 | 0.00 | 0.00 | 55 | 1017.9 |
| 20260906120129 | 68 | 287 | 0.0 | 2.0 | 0.00 | 0.00 | 0.00 | 55 | 1018.0 |
| 20260906114702 | 68 | 298 | 0.0 | 0.0 | 0.00 | 0.00 | 0.00 | 55 | 1017.9 |
| 20260906113153 | 68 | 292 | 0.0 | 0.0 | 0.00 | 0.00 | 0.00 | 56 | 1017.8 |
| 20260906111628 | 69 | 305 | 0.0 | 1.0 | 0.00 | 0.00 | 0.00 | 56 | 1017.8 |
| 20260906110141 | 69 | 306 | 0.0 | 2.0 | 0.00 | 0.00 | 0.00 | 56 | 1017.5 |
| 20260906104637 | 70 | 47 | 0.0 | 1.0 | 0.00 | 0.00 | 0.00 | 55 | 1017.3 |
| 20260906103128 | 70 | 47 | 0.0 | 1.0 | 0.00 | 0.00 | 0.00 | 55 | 1017.3 |
| 20260906101625 | 71 | 47 | 0.0 | 3.0 | 0.00 | 0.00 | 0.00 | 54 | 1017.3 |
| 20260906100137 | 71 | 101 | 0.0 | 1.0 | 0.00 | 0.00 | 0.00 | 54 | 1017.2 |
| 20260906094629 | 71 | 163 | 0.0 | 0.0 | 0.00 | 0.00 | 0.00 | 55 | 1017.2 |
| 20260906093126 | 71 | 163 | 0.0 | 0.0 | 0.00 | 0.00 | 0.00 | 54 | 1017.1 |
| 20260906091638 | 72 | 166 | 0.0 | 2.0 | 0.00 | 0.00 | 0.00 | 54 | 1017.0 |
| 20260906090135 | 72 | 213 | 1.0 | 3.0 | 0.00 | 0.00 | 0.00 | 53 | 1016.8 |
| 20260906084625 | 72 | 166 | 0.0 | 2.0 | 0.00 | 0.00 | 0.00 | 52 | 1016.9 |
| 20260906083122 | 72 | 343 | 0.0 | 0.0 | 0.00 | 0.00 | 0.00 | 51 | 1017.0 |
| 20260906081633 | 73 | 343 | 0.0 | 0.0 | 0.00 | 0.00 | 0.00 | 50 | 1017.0 |
| 20260906080126 | 74 | 343 | 0.0 | 1.0 | 0.00 | 0.00 | 0.00 | 49 | 1016.9 |
| 20260906074641 | 74 | 343 | 0.0 | 0.0 | 0.00 | 0.00 | 0.00 | 48 | 1016.8 |
| 20260906073134 | 74 | 343 | 0.0 | 0.0 | 0.00 | 0.00 | 0.00 | 49 | 1017.0 |
| 20260906071630 | 75 | 343 | 0.0 | 1.0 | 0.00 | 0.00 | 0.00 | 48 | 1017.1 |
| 20260906070123 | 76 | 336 | 1.0 | 2.0 | 0.00 | 0.00 | 0.00 | 48 | 1017.1 |
| 20260906064639 | 76 | 338 | 0.0 | 1.0 | 0.00 | 0.00 | 0.00 | 48 | 1017.2 |
| 20260906063131 | 77 | 322 | 0.0 | 1.0 | 0.00 | 0.00 | 0.00 | 48 | 1017.5 |
| 20260906061642 | 77 | 21 | 0.0 | 1.0 | 0.00 | 0.00 | 0.00 | 48 | 1017.4 |
| 20260906060138 | 78 | 120 | 0.0 | 0.0 | 0.00 | 0.00 | 0.00 | 47 | 1017.5 |
| 20260906054630 | 78 | 120 | 0.0 | 1.0 | 0.00 | 0.00 | 0.00 | 46 | 1017.5 |
| 20260906053127 | 78 | 190 | 1.0 | 3.0 | 0.00 | 0.00 | 0.00 | 46 | 1017.6 |
| 20260906051638 | 77 | 156 | 0.0 | 1.0 | 0.00 | 0.00 | 0.00 | 48 | 1017.5 |
| 20260906050134 | 77 | 156 | 0.0 | 0.0 | 0.00 | 0.00 | 0.00 | 47 | 1017.3 |
| 20260906044625 | 77 | 242 | 0.0 | 0.0 | 0.00 | 0.00 | 0.00 | 47 | 1017.4 |
| 20260906043154 | 78 | 240 | 0.0 | 1.0 | 0.00 | 0.00 | 0.00 | 47 | 1017.3 |
| 20260906041629 | 79 | 246 | 0.0 | 2.0 | 0.00 | 0.00 | 0.00 | 45 | 1017.1 |
| 20260906040122 | 79 | 250 | 2.0 | 5.0 | 0.00 | 0.00 | 0.00 | 44 | 1017.2 |
| 20260906034638 | 80 | 213 | 0.0 | 2.0 | 0.00 | 0.00 | 0.00 | 42 | 1017.0 |
| 20260906033131 | 80 | 203 | 0.0 | 0.0 | 0.00 | 0.00 | 0.00 | 42 | 1016.9 |
| 20260906031624 | 80 | 203 | 0.0 | 0.0 | 0.00 | 0.00 | 0.00 | 42 | 1016.8 |
| 20260906030138 | 80 | 203 | 0.0 | 0.0 | 0.00 | 0.00 | 0.00 | 42 | 1016.5 |
| 20260906024629 | 81 | 240 | 0.0 | 0.0 | 0.00 | 0.00 | 0.00 | 41 | 1016.4 |
| 20260906023126 | 82 | 240 | 0.0 | 1.0 | 0.00 | 0.00 | 0.00 | 40 | 1016.4 |
| 20260906021638 | 82 | 235 | 0.0 | 1.0 | 0.00 | 0.00 | 0.00 | 40 | 1016.4 |
| 20260906020135 | 83 | 258 | 1.0 | 4.0 | 0.00 | 0.00 | 0.00 | 39 | 1016.3 |
| 20260906014647 | 83 | 245 | 0.0 | 1.0 | 0.00 | 0.00 | 0.00 | 38 | 1016.1 |
| 20260906013159 | 84 | 6 | 2.0 | 6.0 | 0.00 | 0.00 | 0.00 | 38 | 1016.0 |
| 20260906011634 | 86 | 69 | 6.0 | 9.0 | 0.00 | 0.00 | 0.00 | 36 | 1016.0 |
| 20260906010127 | 88 | 359 | 1.0 | 8.0 | 0.00 | 0.00 | 0.00 | 31 | 1015.9 |
| 20260906004642 | 91 | 234 | 3.0 | 9.0 | 0.00 | 0.00 | 0.00 | 29 | 1015.8 |
| 20260906003134 | 92 | 213 | 3.0 | 6.0 | 0.00 | 0.00 | 0.00 | 28 | 1015.9 |
| 20260906001625 | 92 | 254 | 4.0 | 10.0 | 0.00 | 0.00 | 0.00 | 28 | 1015.8 |
| 20260906000141 | 91 | 160 | 7.0 | 15.0 | 0.00 | 0.00 | 0.00 | 29 | 1015.9 |
| 20260905234634 | 91 | 171 | 10.0 | 17.0 | 0.00 | 0.00 | 0.00 | 28 | 1016.0 |
| 20260905233130 | 91 | 142 | 10.0 | 20.0 | 0.00 | 0.00 | 0.00 | 28 | 1015.9 |
| 20260905231621 | 93 | 172 | 16.0 | 22.0 | 0.00 | 0.00 | 0.00 | 26 | 1015.9 |
| 20260905230134 | 95 | 230 | 4.0 | 13.0 | 0.00 | 0.00 | 0.00 | 25 | 1015.9 |